• In Hungary
  • List of Countries
  • For 7 days
  • Water Temperature
  • Satellite Maps
  • Weather Map
  • News
  • Weather Widgets
  • user-avatar
    Login

    Hourly Weather Ariccia

    Today, 14 November, Wednesday

    Time Temperature Precipitation Wind Pressure Humidity
    00:00 +12°C° 0 mm 2 mps 735 mmHg 74%
    01:00 +12°C° 0 mm 2 mps 735 mmHg 70%
    02:00 +12°C° 0 mm 2 mps 735 mmHg 69%
    03:00 +12°C° 0 mm 2 mps 735 mmHg 68%
    04:00 +12°C° 0 mm 2 mps 734 mmHg 67%
    05:00 +10°C° 0 mm 2 mps 734 mmHg 67%
    06:00 +10°C° 0 mm 2 mps 734 mmHg 66%
    07:00 +10°C° 0 mm 2 mps 734 mmHg 65%
    08:00 +13°C° 0 mm 2 mps 734 mmHg 59%
    09:00 +15°C° 0 mm 1 mps 735 mmHg 53%
    10:00 +18°C° 0 mm 1 mps 735 mmHg 47%
    11:00 +18°C° 0 mm 1 mps 735 mmHg 45%
    12:00 +19°C° 0 mm 1 mps 734 mmHg 43%
    13:00 +20°C° 0 mm 1 mps 734 mmHg 41%
    14:00 +20°C° 0 mm 1 mps 734 mmHg 46%
    15:00 +18°C° 0 mm 2 mps 734 mmHg 50%
    16:00 +17°C° 0 mm 2 mps 733 mmHg 54%
    17:00 +16°C° 0 mm 2 mps 733 mmHg 58%
    18:00 +15°C° 0 mm 2 mps 733 mmHg 62%
    19:00 +13°C° 0 mm 1 mps 733 mmHg 66%
    20:00 +13°C° 0 mm 2 mps 733 mmHg 67%
    21:00 +13°C° 0 mm 2 mps 733 mmHg 68%
    22:00 +12°C° 0 mm 2 mps 733 mmHg 69%
    23:00 +12°C° 0 mm 2 mps 733 mmHg 69%

    Tomorrow, 15 November, Thursday

    Time Temperature Precipitation Wind Pressure Humidity
    00:00 +12°C° 0 mm 2 mps 733 mmHg 69%
    01:00 +12°C° 0 mm 2 mps 733 mmHg 69%
    02:00 +12°C° 0 mm 1 mps 732 mmHg 70%
    03:00 +11°C° 0 mm 1 mps 732 mmHg 70%
    04:00 +11°C° 0 mm 1 mps 732 mmHg 71%
    05:00 +10°C° 0 mm 2 mps 732 mmHg 71%
    06:00 +10°C° 0 mm 2 mps 732 mmHg 71%
    07:00 +10°C° 0 mm 2 mps 732 mmHg 72%
    08:00 +13°C° 0 mm 1 mps 732 mmHg 66%
    09:00 +15°C° 0 mm 1 mps 732 mmHg 60%
    10:00 +16°C° 0 mm 1 mps 732 mmHg 53%
    11:00 +18°C° 0 mm 1 mps 732 mmHg 51%
    12:00 +19°C° 0 mm 1 mps 732 mmHg 49%
    13:00 +20°C° 0 mm 1 mps 732 mmHg 47%
    14:00 +19°C° 0 mm 1 mps 731 mmHg 51%
    15:00 +18°C° 0 mm 1 mps 731 mmHg 55%
    16:00 +18°C° 0 mm 1 mps 731 mmHg 58%
    17:00 +15°C° 0 mm 1 mps 731 mmHg 63%
    18:00 +14°C° 0 mm 1 mps 731 mmHg 67%
    19:00 +13°C° 0 mm 1 mps 731 mmHg 71%
    20:00 +13°C° 0 mm 1 mps 731 mmHg 72%
    21:00 +12°C° 0 mm 1 mps 731 mmHg 73%
    22:00 +12°C° 0 mm 1 mps 731 mmHg 73%
    23:00 +12°C° 0 mm 1 mps 731 mmHg 74%

    Day after tomorrow, 16 November, Friday

    Time Temperature Precipitation Wind Pressure Humidity
    00:00 +12°C° 0 mm 2 mps 730 mmHg 74%
    01:00 +10°C° 0 mm 2 mps 730 mmHg 74%
    02:00 +10°C° 0 mm 2 mps 730 mmHg 74%
    03:00 +10°C° 0 mm 2 mps 730 mmHg 73%
    04:00 +10°C° 0 mm 2 mps 730 mmHg 72%
    05:00 +10°C° 0 mm 2 mps 730 mmHg 71%
    06:00 +10°C° 0 mm 2 mps 730 mmHg 70%
    07:00 +10°C° 0 mm 2 mps 730 mmHg 69%
    08:00 +12°C° 0 mm 2 mps 730 mmHg 64%
    09:00 +14°C° 0 mm 2 mps 730 mmHg 59%
    10:00 +15°C° 0 mm 2 mps 730 mmHg 54%
    11:00 +16°C° 0 mm 1 mps 730 mmHg 51%
    12:00 +18°C° 0 mm 1 mps 730 mmHg 48%
    13:00 +18°C° 0 mm 1 mps 730 mmHg 45%
    14:00 +18°C° 0 mm 1 mps 730 mmHg 48%
    15:00 +16°C° 0 mm 1 mps 729 mmHg 52%
    16:00 +15°C° 0 mm 1 mps 729 mmHg 55%
    17:00 +14°C° 0 mm 1 mps 729 mmHg 60%
    18:00 +13°C° 0 mm 1 mps 729 mmHg 64%
    19:00 +12°C° 0 mm 2 mps 729 mmHg 69%
    20:00 +10°C° 0.2 mm 2 mps 730 mmHg 69%
    21:00 +10°C° 0.2 mm 2 mps 730 mmHg 70%
    22:00 +10°C° 0.2 mm 3 mps 730 mmHg 71%
    23:00 +9°C° 0.1 mm 3 mps 730 mmHg 71%

    17 November, Saturday

    Time Temperature Precipitation Wind Pressure Humidity
    00:00 +9°C° 0.1 mm 3 mps 730 mmHg 71%
    01:00 +8°C° 0.1 mm 4 mps 730 mmHg 71%
    02:00 +7°C° 0 mm 4 mps 729 mmHg 71%
    03:00 +7°C° 0 mm 4 mps 729 mmHg 71%
    04:00 +7°C° 0 mm 4 mps 729 mmHg 71%
    05:00 +7°C° 0 mm 4 mps 729 mmHg 71%
    06:00 +6°C° 0 mm 4 mps 729 mmHg 71%
    07:00 +6°C° 0 mm 4 mps 729 mmHg 71%
    08:00 +8°C° 0 mm 4 mps 729 mmHg 64%
    09:00 +10°C° 0 mm 4 mps 729 mmHg 58%
    10:00 +12°C° 0 mm 4 mps 729 mmHg 51%
    11:00 +12°C° 0 mm 4 mps 729 mmHg 48%
    12:00 +13°C° 0 mm 3 mps 729 mmHg 45%
    13:00 +14°C° 0 mm 3 mps 728 mmHg 41%
    14:00 +14°C° 0 mm 3 mps 728 mmHg 44%
    15:00 +13°C° 0 mm 3 mps 728 mmHg 46%
    16:00 +13°C° 0 mm 3 mps 728 mmHg 48%
    17:00 +12°C° 0 mm 3 mps 728 mmHg 52%
    18:00 +10°C° 0 mm 3 mps 728 mmHg 57%
    19:00 +8°C° 0 mm 4 mps 728 mmHg 61%
    20:00 +8°C° 0 mm 4 mps 728 mmHg 63%
    21:00 +7°C° 0 mm 4 mps 728 mmHg 64%
    22:00 +7°C° 0 mm 4 mps 727 mmHg 66%
    23:00 +7°C° 0 mm 4 mps 727 mmHg 67%

    18 November, Sunday

    Time Temperature Precipitation Wind Pressure Humidity
    00:00 +6°C° 0 mm 4 mps 727 mmHg 68%
    01:00 +6°C° 0 mm 4 mps 726 mmHg 68%
    02:00 +6°C° 0 mm 4 mps 726 mmHg 68%
    03:00 +6°C° 0 mm 4 mps 726 mmHg 69%
    04:00 +6°C° 0 mm 4 mps 725 mmHg 69%
    05:00 +6°C° 0 mm 4 mps 725 mmHg 69%
    06:00 +6°C° 0 mm 4 mps 725 mmHg 69%
    07:00 +7°C° 0 mm 3 mps 726 mmHg 69%
    08:00 +8°C° 0 mm 3 mps 726 mmHg 64%
    09:00 +10°C° 0 mm 3 mps 726 mmHg 59%
    10:00 +12°C° 0 mm 3 mps 726 mmHg 53%
    11:00 +13°C° 0 mm 3 mps 726 mmHg 50%
    12:00 +15°C° 0 mm 2 mps 726 mmHg 47%
    13:00 +16°C° 0 mm 2 mps 726 mmHg 44%
    14:00 +15°C° 0 mm 2 mps 726 mmHg 47%
    15:00 +15°C° 0 mm 2 mps 726 mmHg 50%
    16:00 +14°C° 0 mm 2 mps 726 mmHg 53%
    17:00 +13°C° 0 mm 2 mps 726 mmHg 57%
    18:00 +12°C° 0 mm 2 mps 726 mmHg 61%
    19:00 +9°C° 0 mm 2 mps 726 mmHg 65%
    20:00 +9°C° 0 mm 2 mps 726 mmHg 66%
    21:00 +9°C° 0 mm 2 mps 726 mmHg 68%
    22:00 +8°C° 0 mm 2 mps 726 mmHg 69%
    23:00 +8°C° 0 mm 2 mps 726 mmHg 70%

    19 November, Monday

    Time Temperature Precipitation Wind Pressure Humidity
    00:00 +8°C° 0 mm 2 mps 726 mmHg 71%
    01:00 +7°C° 0 mm 2 mps 726 mmHg 72%
    02:00 +7°C° 0 mm 2 mps 726 mmHg 73%
    03:00 +7°C° 0 mm 2 mps 726 mmHg 73%
    04:00 +7°C° 0 mm 2 mps 725 mmHg 73%
    05:00 +7°C° 0 mm 2 mps 725 mmHg 73%
    06:00 +7°C° 0 mm 2 mps 725 mmHg 73%
    07:00 +6°C° 0 mm 2 mps 725 mmHg 73%
    08:00 +8°C° 0 mm 2 mps 726 mmHg 67%
    09:00 +10°C° 0 mm 2 mps 726 mmHg 60%
    10:00 +13°C° 0 mm 1 mps 726 mmHg 53%
    11:00 +14°C° 0 mm 1 mps 726 mmHg 50%
    12:00 +14°C° 0 mm 1 mps 725 mmHg 47%
    13:00 +15°C° 0 mm 1 mps 725 mmHg 43%
    14:00 +15°C° 0 mm 1 mps 725 mmHg 47%
    15:00 +14°C° 0 mm 1 mps 725 mmHg 51%
    16:00 +13°C° 0 mm 1 mps 725 mmHg 54%
    17:00 +12°C° 0 mm 1 mps 724 mmHg 58%
    18:00 +10°C° 0 mm 0 mps 724 mmHg 61%
    19:00 +9°C° 0 mm 0 mps 724 mmHg 64%
    20:00 +9°C° 0 mm 0 mps 724 mmHg 65%
    21:00 +9°C° 0 mm 1 mps 724 mmHg 66%
    22:00 +9°C° 0 mm 1 mps 724 mmHg 67%
    23:00 +9°C° 0 mm 1 mps 724 mmHg 67%
    Show more